Zurück zum Katalog

COSMOS 1285 DEB

LostHEO
NORAD 27798·DEBRIS·🇷🇺 Russia

Gestartet Aug 4, 1981 von Plesetsk Cosmodrome

Loading…

Nächste Überflüge (nächste 24 Stunden)

TLE

VeraltetSource: Space-Track

Epoche: Feb 18, 2016, 05:40 UTC

1 27798U 81071M   16049.23628946  .00000656  00000-0  00000+0 0  9996
2 27798  69.7363 281.7684 5500691  88.5935  34.8885  1.98167187111220

Verfolge COSMOS 1285 DEB in Echtzeit mit AllMySat

Download on the App Store